Location: Unspecified
(0.0000°N, 0.0000°E)
Time: 19:33:58
(UTC+00:00)

deb OV3-4 - Pass Details

Date: 15 April 2026
Orbit: 581 x 4210 km, 40.6° (Epoch: 13 May)

Event Time Altitude Azimuth Distance (km) Brightness Sun altitude
Rises 04:30:50 0° 181° (S) 4,149 ? -22.0°
Reaches altitude 10° 04:36:25 10° 148° (SSE) 3,926 ? -20.6°
Maximum altitude 04:39:39 12° 130° (SE) 4,218 ? -19.8°
Drops below altitude 10° 04:43:28 10° 112° (ESE) 4,836 ? -18.9°
Sets 04:53:19 0° 85° (E) 6,949 ? -16.5°
